FENGYUN 1C DEB

Satellite information

Favourite Embed

Satellite Type and Status

DEBRISIN ORBIT

Key statistics

Satellite FENGYUN 1C DEB at a glance.

Uptime

9715

Days in orbit

Revolutions

≈ 14.2

Per day

Orbit

SSO

Sun Synchronous Orbit

Inclination

98.9

Latest

Satellite identification and parameters

Extended collection of information and parameters for FENGYUN 1C DEB.

Object identification

Identified? True

Debris? True

Object name: FENGYUN 1C DEB

International designator: 1999-025AHT

Object number (NORAD): 30505

Object ID (CCSDS): 30505

Country: PEOPLES REPUBLIC OF CHINA (PRC)

Current information (Y/N): Y

RCS size: SMALL

Orbital parameters

Period: 101.264 minutes

Inclination: 98.9265 deg

SMA: 7196.631 km

Apoapsis: 864.319 km

Periapsis: 772.673 km

RAAN: 65.8703 deg

Eccentricy: 0.00636728

Argument of periapsis: 243.6684 deg

Mean anomaly: 144.1368 deg

Mean motion: 14.22030419 rev/day

Mean motion (dot): 0.00006039 rev/day2

B* drag term: 0.0026942283 1/REarth

Two-line elements (TLE)

Creation date: Dec. 12, 2025, 10:14 a.m.

Reference frame: TEME

Reference center: EARTH

Epoch: Dec. 12, 2025, 5:13 a.m. UTC

TLE line 0: 0 FENGYUN 1C DEB

TLE line 1: 1 30505U 99025AHT 25346.21747213 .00006039 00000-0 26942-2 0 9998

TLE line 2: 2 30505 98.9265 65.8703 0063673 243.6684 144.1368 14.22030419969165

Live tracking on map

Real-time ground track for satellite FENGYUN 1C DEB.

In-orbit conjunctions

A list of the most updated potential collisions computed for object FENGYUN 1C DEB.

Target Orbit TCA Probability of collision Miss distance Type
COSMOS 2251 DEB LEO 2025-10-27 09:28:00 0.0001098483 271.0 (m) DEBRIS
FENGYUN 1C DEB SSO 2025-10-13 21:39:13 0.0002151071 334.0 (m) DEBRIS
FENGYUN 1C DEB SSO 2025-09-14 00:25:48 0.0002056159 202.0 (m) DEBRIS
CZ-6A DEB LEO 2025-03-15 05:33:41 0.0002578144 107.0 (m) DEBRIS

Associated space launch

Chinese polar orbiting meteorological satellite

FENGYUN 1C DEB was lifted into orbit during the mission ‘Long March 4B | Feng Yun 1C’, on board a Long March 4B space rocket.

The launch took place on May 10, 1999, 1:33 a.m. from Launch Complex 7.

For more information about the launch, click the button.

Launch to space Long March 4B | Feng Yun 1C
Long March 4B | Feng Yun 1C

Agency: N/A

Status: Launch Successful

Launch date: May 10, 1999, 1:33 a.m. UTC

Rocket: Long March 4B

Launch pad: Launch Complex 7

Location: Taiyuan Satellite Launch Center, People's Republic of China

...

Latest news about this satellite

There are no fresh news available about this satellite. Check back as we update our databases every day.


Newsletter sign-up

Weekly statistics, charts and insights to help you stay on top of the space industry.